Regional Weather Roundup
Issued by NWS

Home | Current Version | Previous Version | Graphics & Text | Print | Product List | Glossary On
Versions: 1 2 3 4 5 6 7 8 9 10 11 12 13 14 15 16 17 18 19 20 21 22 23 24 25 26 27 28 29 30 31 32 33 34 35 36 37 38 39 40 41 42 43 44 45 46 47 48 49 50
000
ASUS43 KLOT 231903
RWRIL

ILLINOIS REGIONAL WEATHER ROUNDUP
NATIONAL WEATHER SERVICE CHICAGO/ROMEOVILLE IL
200 PM CDT SAT JUL 23 2016

NOTE: "FAIR" INDICATES FEW OR NO CLOUDS BELOW 12,000 FEET WITH NO
SIGNIFICANT WEATHER AND/OR OBSTRUCTIONS TO VISIBILITY.

* THESE STATIONS ARE NOT UNDER NWS QUALITY CONTROL. THEY ALSO MAY NOT
  REPORT WEATHER SUCH AS PRECIPITATION OR FOG.

ILZ001-002-007-009-015-016-024-232000-
NORTHWEST ILLINOIS

CITY           SKY/WX    TMP DP  RH WIND       PRES   REMARKS
MOLINE         CLOUDY    89  79  72 SE12      29.93F HX 104
STERLING*      CLOUDY    86  79  79 VRB5      29.96F HX  99
SAVANNA*       CLOUDY    85  79  84 SE3       29.95F HX  97
$$

ILZ003-004-008-010-011-017-018-232000-
NORTH CENTRAL ILLINOIS

CITY           SKY/WX    TMP DP  RH WIND       PRES   REMARKS
ROCKFORD       CLOUDY    87  78  74 S8        29.98F HX 100
FREEPORT*      CLOUDY    82  77  83 S3        30.00F HX  91
ROCHELLE*      CLOUDY    85  79  80 S7        29.99F HX  98
DE KALB*       CLOUDY    86  78  77 S8        30.00F HX  98
$$

ILZ005-006-012>014-019>023-232000-
NORTHEAST ILLINOIS

CITY           SKY/WX    TMP DP  RH WIND       PRES   REMARKS
CHICAGO-OHARE  CLOUDY    89  73  59 VRB3      29.97F HX  97
CHICAGO-MIDWAY CLOUDY    91  73  55 SW7       29.96F HX  99
AURORA         CLOUDY    87  77  72 S8        29.99S HX  99
LANSING*       CLOUDY    89  75  63 SW6       29.98F HX  98
WAUKEGAN       PTSUNNY   84  77  79 SE7       29.98S HX  94
DUPAGE AIRPORT CLOUDY    89  74  60 S7        29.98F HX  98
WHEELING       CLOUDY    89  76  65 CALM      29.98F HX 100
MORRIS*        CLOUDY    87  77  72 SW8       29.98S HX  99
NORTHERLY ISL    N/A     83  75  77 E3          N/A  HX  90
$$

LMZ740>746-232000-
SOUTHERN LAKE MICHIGAN

STATION/POSITION SKY/WX   TEMP    WIND        PRES    VSBY  WAVE
                          AIR SEA DIR/SP/G                  HT/PER
                          (F)     (DEG/KT/KT) (MB)    (MI)  (FT/S)
SOUTHERN BUOY              77 77  160/  4/  4 1014.8          0
WILMETTE HARBOR            79 74  130/  4/  6   N/A           0
HARRISON CRIB              81     100/  8/  8   N/A
BURNHAM HARBOR             83     160/  2/  4   N/A
CALUMET HARBOR             81      60/  6/  8 1014.9S
BURNS HARBOR               82      60/  6/  7 1015.9S
MICHIGAN CITY              78      10/  4/  4   N/A
MICHIGAN CITY 6N           80 78   30/  2/  4   N/A           0
ST. JOSEPH                 78 78  320/  2/  4 1015.2F         1
$$

ILZ025>027-034>036-040-047-049-050-058-095>099-232000-
WEST-CENTRAL ILLINOIS

CITY           SKY/WX    TMP DP  RH WIND       PRES   REMARKS
QUINCY         SUNNY     92  77  61 S8        29.95F HX 105
GALESBURG*     MOSUNNY   89  78  70 S7        29.96F HX 103
MACOMB*        CLOUDY    89  80  73 SE10      29.97F HX 105
JACKSONVILLE*  MOSUNNY   89  77  67 S3        29.97F HX 102
PITTSFIELD*    MOSUNNY   90  80  74 SE8       29.98F HX 108
$$

ILZ028>032-037-038-041>044-048-051>054-059>061-232000-
CENTRAL ILLINOIS

CITY           SKY/WX    TMP DP  RH WIND       PRES   REMARKS
PONTIAC        CLOUDY    88  78  72 S5        30.00S HX 102
BLOOMINGTON    CLOUDY    87  75  67 S7        30.02R HX  96
DECATUR        MOSUNNY   90  74  59 S7        30.00S HX  99
PEORIA         CLOUDY    89  75  63 S7        29.97F HX  99
LACON*         CLOUDY    89  74  59 S3        29.96F HX  98
LINCOLN*       PTSUNNY   90  77  65 S6        29.99S HX 102
SPRINGFIELD    SUNNY     91  76  61 VRB5      29.99S HX 103
TAYLORVILLE    MOSUNNY   88  77  70 NW3       29.99F HX 100
$$

ILZ033-039-045-046-055>057-062-063-232000-
EAST-CENTRAL ILLINOIS

CITY           SKY/WX    TMP DP  RH WIND       PRES   REMARKS
CHAMPAIGN      MOSUNNY   87  76  69 S7        30.01F HX  97
MATTOON        MOSUNNY   87  74  64 VRB6      30.00S HX  95
PARIS*         MOSUNNY   88  75  66 CALM      30.02S HX  98
$$

ILZ079-100>102-232000-
SOUTHWEST ILLINOIS

CITY           SKY/WX    TMP DP  RH WIND       PRES   REMARKS
BELLEVILLE     MOSUNNY   91  79  68 SE1       29.96F HX 107
CAHOKIA*       SUNNY     94  70  45 S6        29.96F HX 100
SPARTA*        SUNNY     89  74  63 S6        29.99F HX  98
$$

ILZ064>066-069>071-074>076-080>082-084>086-088>090-092>094-232000-
SOUTH-CENTRAL ILLINOIS

CITY           SKY/WX    TMP DP  RH WIND       PRES   REMARKS
CARBONDALE     MOSUNNY   90  75  61 SE5       29.98F HX 100
CAIRO*         MOSUNNY   88  77  70 CALM      29.97S HX  99
EFFINGHAM*     MOSUNNY   88  76  66 SE3       30.01F HX  99
MARION         PTSUNNY   90  75  62 SE6       29.99  HX 100
MT. VERNON     MOSUNNY   91  73  55 CALM      29.99F HX 100
CENTRALIA*     SUNNY     90  77  64 CALM      29.98F HX 103
SALEM*         MOSUNNY   91  75  60 SE3       29.99S HX 101
METROPOLIS*    MOSUNNY   90  77  65 CALM      29.99S HX 103
$$

ILZ067-068-072-073-078-083-087-091-232000-
SOUTHEAST ILLINOIS

CITY           SKY/WX    TMP DP  RH WIND       PRES   REMARKS
LAWRENCEVILLE  MOSUNNY   88  77  69 CALM      29.99F HX 100
FLORA*         PTSUNNY   91  77  63 E5        29.99F HX 103
FAIRFIELD*     SUNNY     88  76  67 E3        29.98F HX  99
HARRISBURG*    MOSUNNY   88  77  69 CALM      29.98F HX 100
CARMI*         MOSUNNY   88  79  75 CALM      29.98F HX 103
$$

ABBREVIATIONS USED IN REMARKS
   TC - TEMPERATURE IN CELSIUS
  WCI - WIND CHILL INDEX
   HX - HEAT INDEX
  VSB - VISIBILITY
$$





USA.gov is the U.S. government's official web portal to all federal, state and local government web resources and services.